Location: Unspecified
(0.0000°N, 0.0000°E)
Time: 15:08:38
(UTC+00:00)

Envisat - Pass Details

Date: 23 August 2019
Orbit: 764 x 766 km, 98.1° (Epoch: 21 August)

Event Time Altitude Azimuth Distance (km) Brightness Sun altitude
Rises 19:50:03 0° 205° (SSW) 3,230 6.4 -26.3°
Reaches altitude 10° 19:53:54 10° 235° (SW) 2,300 6.0 -27.2°
Maximum altitude 19:55:48 12° 257° (WSW) 2,157 6.1 -27.7°
Drops below altitude 10° 19:57:41 10° 279° (W) 2,296 6.4 -28.1°
Sets 20:01:32 0° 310° (NW) 3,217 7.2 -29.1°
